#timestamp,LO_Frequency,Hit,StdDev 
1657540815.0,286046999.6,N
1657540815.9,286046999.6,N
1657540835.8,286047001.2,N
1657540855.6,286047004.2,N
1657540875.4,286046999.2,N
1657540895.3,286046999.1,N
1657540915.1,286046995.6,N
1657540935.9,286046997.7,N
1657540955.7,286046997.9,N
1657540975.5,286046994.1,N
1657540995.4,286046997.4,N
1657541015.2,286046995.7,N
1657541035.0,286046997.6,N
1657541035.9,286046997.6,N
1657541055.8,286046997.1,N
1657541075.6,286047001.3,N
1657541095.5,286047004.1,N
1657541115.3,286047001.1,N
1657541135.1,286046999.0,N
1657541155.9,286046999.0,N
1657541175.7,286047000.1,N
1657541195.5,286046998.9,N
1657541215.4,286046999.0,N
1657541235.2,286046999.1,N
1657541255.0,286047001.2,N
1657541256.0,286047001.2,N
1657541275.8,286047000.6,N
1657541295.6,286046997.3,N
1657541315.5,286046997.3,N
1657541335.3,286046997.2,N
1657541355.1,286046995.3,N
1657541375.9,286046997.3,N
1657541395.7,286046998.9,N
1657541415.6,286046997.8,N
1657541435.4,286046993.3,Y
1657541455.2,286046995.2,P
1657541475.1,286046997.4,N
1657541476.0,286046997.4,N
1657541495.8,286046999.4,N
1657541515.6,286046999.0,N
1657541535.5,286046999.6,N
1657541555.3,286047001.1,N
1657541575.2,286046998.1,N
1657541595.9,286047000.0,N
1657541615.7,286046998.5,N
1657541635.6,286046999.2,N
1657541655.4,286046999.2,N
1657541675.2,286046998.6,N
1657541695.1,286047000.0,N
1657541696.0,286047000.0,N
1657541715.8,286047001.9,N
1657541735.7,286047004.2,N
1657541755.5,286046998.9,N
1657541775.3,286046996.9,N
1657541795.2,286046998.9,N
1657541815.0,286046999.0,N
1657541815.9,286046999.0,N
1657541835.7,286046998.5,N
1657541855.6,286046998.4,N
1657541875.4,286047000.3,N
1657541895.3,286047003.1,N
1657541915.1,286047002.5,N
1657541916.0,286047002.5,N
1657541935.8,286047000.4,N
1657541955.7,286047000.0,N
1657541975.5,286047002.5,N
1657541995.4,286047001.7,N
1657542015.2,286047000.2,N
1657542035.0,286046999.0,N
1657542035.9,286046999.0,N
1657542055.8,286047001.7,N
1657542075.6,286047003.6,N
1657542095.4,286047005.6,Y
1657542115.3,286047005.3,P
1657542135.1,286047005.8,N
1657542155.9,286047005.8,N
1657542175.7,286047003.6,N
1657542195.5,286047004.0,N
1657542215.4,286047001.0,N
1657542235.2,286047000.3,N
1657542255.0,286047002.2,N
1657542255.9,286047002.2,N
1657542275.8,286047001.5,N
1657542295.6,286046998.9,N
1657542315.5,286047001.7,N
1657542335.3,286047002.7,N
1657542355.1,286047002.7,N
1657542375.9,286046998.9,N
1657542395.7,286046998.1,N
1657542415.5,286046998.1,N
1657542435.4,286047002.2,N
1657542455.2,286047004.3,N
1657542475.1,286047002.9,N
1657542476.0,286047002.9,N
1657542495.8,286047001.6,N
1657542515.6,286047002.7,N
1657542535.5,286047003.0,N
1657542555.3,286047005.1,N
1657542575.1,286047005.0,N
1657542595.9,286047004.3,N
1657542615.7,286047002.3,N
1657542635.6,286046998.2,N
1657542655.4,286046999.6,N
1657542675.2,286046999.4,N
1657542695.1,286047002.8,N
1657542696.0,286047002.8,N
1657542715.8,286046999.2,N
1657542735.6,286046996.6,N
1657542755.5,286046998.8,N
1657542775.3,286047000.6,N
1657542795.2,286047000.1,N
1657542815.9,286046998.1,N
1657542835.7,286046997.8,N
1657542855.6,286046993.5,N
1657542875.4,286046997.8,N
1657542895.2,286046999.3,N
1657542915.1,286047000.6,N
1657542916.0,286047000.6,N
1657542935.8,286046998.3,N
1657542955.7,286046997.3,N
1657542975.5,286046997.9,N
1657542995.3,286046995.6,N
1657543015.2,286046999.4,N
1657543035.0,286046999.6,N
1657543035.9,286046999.6,N
1657543055.8,286046997.7,N
1657543075.6,286046995.1,N
1657543095.4,286046997.6,N
1657543115.3,286046997.0,N
1657543135.1,286046999.1,N
1657543155.8,286046998.9,N
1657543175.7,286046999.5,N
1657543195.5,286046998.9,N
1657543215.4,286046999.1,N
1657543235.2,286047002.4,N
1657543255.0,286046999.7,N
1657543255.9,286046999.7,N
1657543275.8,286047004.8,N
1657543295.6,286047006.0,N
1657543315.4,286047004.3,N
1657543335.3,286047004.7,N
1657543355.1,286047007.6,N
1657543375.9,286047007.2,N
1657543395.7,286047005.1,N
1657543415.5,286047005.4,N
1657543435.4,286047005.3,N
1657543455.2,286047005.3,N
1657543475.0,286047005.2,N
1657543475.9,286047005.2,N
1657543495.8,286047004.4,N
1657543515.6,286047001.4,N
1657543535.5,286046999.9,N
1657543555.3,286046999.3,N
1657543575.1,286046999.0,N
1657543595.9,286046996.5,N
1657543615.7,286046997.1,N
1657543635.5,286046998.8,N
1657543655.4,286046998.8,N
1657543675.2,286047000.8,N
1657543695.1,286047000.5,N
1657543696.0,286047000.5,N
1657543715.8,286047005.5,N
1657543735.6,286047005.7,N
1657543755.5,286047001.9,N
1657543775.3,286047001.0,N
1657543795.1,286047000.9,N
1657543815.9,286046998.6,N
1657543835.7,286047001.0,N
1657543855.6,286047002.6,N
1657543875.4,286046998.6,N
1657543895.2,286046999.8,N
1657543915.1,286047002.7,N
1657543916.0,286047002.7,N
1657543935.8,286046998.3,N
1657543955.6,286047001.6,N
1657543975.5,286047002.1,N
1657543995.3,286047004.8,N
1657544015.2,286047005.5,N
1657544035.9,286047005.8,N
1657544055.7,286047005.2,N
1657544075.6,286047003.4,N
1657544095.4,286047001.5,N
1657544115.2,286047005.9,N
1657544135.1,286047007.5,N
1657544136.0,286047007.5,N
1657544155.8,286047008.4,N
1657544175.7,286047009.5,Y
1657544195.5,286047007.1,P
1657544215.3,286047002.9,N
1657544235.2,286047005.5,N
1657544255.0,286047000.3,N
1657544255.9,286047000.3,N
1657544275.7,286046997.1,N
1657544295.6,286047000.0,N
1657544315.4,286047002.5,N
1657544335.3,286047002.3,N
1657544355.1,286047000.1,N
1657544356.0,286047000.1,N
1657544375.8,286047000.0,N
1657544395.7,286047000.4,N
